Погода в Биробиджане

Погода в Биробиджане : погода сейчас, прогноз погоды и архив. Всё, что Вы хотите узнать о погоде в Биробиджане!

Хотите узнать прогноз погоды в Биробиджане? Тогда Вам сюда: Погода в Биробиджане

Поиск расширенной информации на нашем сайте:

Другие новости

Новости СМИ2

Главная страница сайта

Новости сайта

02.10.2013

Напоминаем, что на нашем новом сайте вы можете получить высокодетализированные прогнозы погоды по пунктам России, СНГ и мира (включающие важные для авиации метеовеличины, такие как направление и скорость ветра, видимость, явления погоды, количество и форма облачности, нижняя и верхняя граница облачности), а также ознакомиться с разнообразными материалами по авиационной метеорологии и подборкой полезных ссылок на эту тему.

Сайт Метеоцентр.Азия посвящён разработке технологий оптимизации авиаметеорологического обслуживания, включая проектирование и перспективное создание нескольких автоматизированных авиаметеорологических систем:
- система выпуска высокодетальных прогностических карт явлений погоды для нижнего воздушного пространства по России и ближнему зарубежью;
- система верификации прогнозов TAF (выпускаемых синоптиками официальных АМСГ РФ и ближнего зарубежья) и AUTOTAF (выпускаемых сайтом Метеоцентр.Азия) - выявление ошибок, онлайн-сопоставление с фактической погодой METAR, автоматическое внесение коррективов в прогнозы при резком отклонении фактической погоды от прогноза, подсчёт оправдываемости прогнозов по элементам и в целом;
- система обработки, анализа и отображения авиаметеорологической информации для применения провайдерами метеорологической информации.

Рекомендуем: Ремень вариатора на снегоход ямаха.

Погода в Биробиджане - сегодня

Время (UTC), дата Ветер
(°,м/с) 
Видим.   Явления Облачность Т
(°С)
Тd
(°С)
f(%) Тe
(°С)
Pmin
(гПа)
dP
(гПа)
Po
(мм)
O2
(г/м3)
Тmin Tmax R s Состояние
почвы
21 25.05.17 360 (С) 20000 м    ясно 
+6.6 +6.4 99 +8  1013.6  -0.2  753  295  +2.2        влажная 
00 26.05.17 190 (Ю) 20000 м    ясно 
+15.6 +9 65 +17  1012.7  -0.5  752  285           
03 26.05.17 150 (ЮВ) 20000 м    1/1 1000 м 
[Cu med, cong]
+21.1 +9.4 47 +21  1011.3  -1.2  752  279           
06 26.05.17 170 (Ю) 20000 м    3/3 1000 м 
[Cu med, cong]
+23.5 +5.1 30 +24  1009.3  -1.8  750  278           
09 26.05.17 190 (Ю) 20000 м    1/1 1000 м 
[Sc diur, vesp]
+22.6 +3.9 29 +23  1008.4  -1  749  278    +24       
12 26.05.17 210 (ЮЗ) 20000 м    ясно 
+13.4 +7.2 66 +14  1009.7  1.1  750  287           
15 26.05.17 290 (З) 20000 м    ясно 
+8.9 +7 88 +10  1010.1  0.2  750  292           
18 26.05.17 тихо ()   20000 м    ясно 
+6.7 +5.7 93 +7  1010  -0.2  750  294           
00 27.05.17 120 (ЮВ) 20000 м    ясно 
+18.4 +7.9 50 +20  1010.6  0.2  751  282           
03 27.05.17 170 (Ю) 20000 м    3/3 1000 м 
[Cu med, cong]
+24.9 +6.9 32 +25  1008.7  -1.5  750  276           
06 27.05.17 180 (Ю) 20000 м    ясно 
+25.6 +6.1 29 +26  1006.6  -2.1  748  275           
09 27.05.17 190 (Ю) 20000 м    ясно 
+24.4 +5.1 29 +24  1005.6  -1  747  276    +25.8       
12 27.05.17 200 (Ю) 20000 м    3/0 средняя 
[Ac lent]
+17.3 +8.8 57 +18  1006.2  0.4  748  282           
15 27.05.17 тихо ()   20000 м    ясно 
+11.1 +8.8 86 +11  1005.8  -0.6  747  288           
18 27.05.17 тихо ()   20000 м    ясно 
+8.6 +7.8 95 +9  1005.2  -0.7  747  290           
00 28.05.17 220 (ЮЗ) 20000 м    ясно 
+20.2 +10.1 52 +22  1004  -0.9  746  278           
03 28.05.17 210 (ЮЗ) 20000 м    1/1 1000 м 
[Cu hum]
+26 +7.1 30 +26  1001.8  -2  745  273           
06 28.05.17 200 (Ю) 20000 м    6/1 1000 м средняя, верхняя 
[Cu hum|Ac trans|Ci]
+26.9 +6.6 27 +27  998.8  -2.9  742  271           
12 28.05.17 200 (Ю) 20000 м    10/3 1000 м средняя, верхняя 
[Sc diur, vesp|Ac trans|Cs]
+18.3 +9.7 57 +21  996.6  -0.6  740  278           
15 28.05.17 300 (СЗ) 3{11}  20000 м    6/3 600 м кучево-дожд., средняя, верхняя 
[Cb cap|Ac trans|Ci fib]
+17 +2.1 37 +17  998.7  742  281           
18 28.05.17 250 (З) 5-10{12}  20000 м    ясно 
+11.8 +1.4 49 +11  1000.9  744  287           
00 29.05.17 250 (З) 6{14}  20000 м    1/1 1000 м 
[Cu med, cong]
+14.7 -0.5 35 +14  1003.1  0.3  745  285           
06 29.05.17 240 (ЮЗ) 5{13}  20000 м    9/5 600 м кучево-дожд., средняя, верхняя 
[Cb cap|Ac lent|Ci]
+19.5 -3.6 21 +20  1001  -0.9  744  280           
12 29.05.17 190 (Ю) 20000 м    10/0 средняя 
[As op]
+10.7 +4.7 66 +12  1001.6  0.1  744  288           
15 29.05.17 тихо ()   20000 м    10/0 средняя 
[As op]
+9 +4.1 71 +9  1001  -0.7  744  289           
Время (UTC), дата Ветер
(°,м/с) 
Видим.   Явления Облачность Т
(°С)
Тd
(°С)
f(%) Тe
(°С)
Pmin
(гПа)
dP
(гПа)
Po
(мм)
O2
(г/м3)
Тmin Tmax R s Состояние
почвы

Для получения пояснительной информации подведите курсор к названию столбца.

ПОГОДА в Биробиджане - архив

Всё, что Вы хотите узнать о погоде в Биробиджане - удобно и подробно!

Выберите нужную дату (начиная с 1 января 2015* года) и нажмите кнопку "Найти".
Будут отображены архивные сводки погоды по пункту Биробиджан, начиная с указанной даты.


Отображать данные в формате CSV (для использования в таблицах Excel)


Внимание! Наш архив погоды предназначен исключительно для личного некоммерческого использования в познавательных целях. Если Вам необходимы официальные справки о состоянии погоды (для производственных, юридических, коммерческих и т.п. целей), обращайтесь в органы Росгидромета.

*Примечание: данная дата относится к архиву по метеостанциям СССР (Россия, СНГ, Балтия).
Архив по метеостанциям Зарубежной Европы и Азии (кроме Китая) хранится 10 дней, по другим регионам земного шара (Китай, Африка, Америка, Австралия, Океания) - 1 день.

Биробиджан - район местоположения метеостанции


Название, широта, долгота, высота метеостанции:
Биробиджан 48.7°ш. 132.9°д. 80 м над ур. моря [Российская Федерация]

Дополнительная информация

В oтличие oт бoльшинства пoгoдных сайтoв мы публикуем пoдрoбную метеoинфoрмацию в детальнoм прoфессиoнальнoм фoрмате.

Характеристики температуры и влажнoсти вoздуха измеряются на высoте 2 м в тени вдали oт зданий и деревьев.
Скoрoсть ветра измеряется на высoте 10 м (на урoвне рoста челoвека скoрoсть ветра ниже в 1.5-2 раза). Если метеoстанция нахoдится в гoрoде или в лесу, тo скoрoсть ветра занижена на 2-4 м/с пo сравнению с oткрытым местoм. Скoрoсть ветра над акватoриями крупных рек и oзёр, а также на вершинах хoлмoв на 2-5 м/с выше, чем в oбычных услoвиях.
Атмoсфернoе давление в разных тoчках местнoсти мoжет значительнo oтличаться oт давления на метеoстанции, в зависимoсти oт услoвий рельефа (при пoдъёме на 10 м давление пoнижается примернo на 1 мм рт.ст.).